"TOA5","AWS1","CR1000","7964","CR1000.Std.14","CPU:AWS1_114.CR1","64363","TBL110"
"TIMESTAMP","RECORD","Wind_spd_WVc(1)","Wind_spd_WVc(2)","Air_Temp_Avg","Humidity_Avg","SW_upper_Wm2_Avg","Rain_Tot","Press_Avg","Issui_Tot","Depth_cm","SR50A_Raw","Quality","Ground_Temp_Avg(1)","Ground_Temp_Avg(2)","SW_lower_Wm2_Avg","Albedo_Avg","SWC_per(1)","SWC_per(2)","Period(1)","Period(2)"
"TS","RN","","","","","","","","","","","","","","","","","","",""
"","","WVc","WVc","Avg","Avg","Avg","Tot","Avg","Tot","Smp","Smp","Smp","Avg","Avg","Avg","Avg","Smp","Smp","Smp","Smp"
"2016-07-14 00:00:00",244141,0.463,113.1,18.14,100,0,0,856.7645,0,-3.279,3.111,236,20.97,20.3,0.231162,0,50.72,58.38,33.47,35.31
"2016-07-14 00:10:00",244142,0.46,105,18.09,100,0,0,856.7551,0,-3.231,3.111,212,20.93,20.28,0.2880051,0,50.77,58.38,33.49,35.31
"2016-07-14 00:20:00",244143,0.438,103.3,18.08,100,0,0.5,856.7488,0,1.002,3.07,425,20.94,20.3,0.3562168,0,50.77,58.38,33.49,35.31
"2016-07-14 00:30:00",244144,0.31,108.5,18.07,100,0,1,856.5681,0,0.224,3.078,219,21,20.29,0.3675855,0,50.83,58.38,33.5,35.31
"2016-07-14 00:40:00",244145,0.277,151.6,18.04,100,0,0.5,856.3819,0,0.35,3.077,212,21.01,20.28,0.2538992,0,50.94,58.38,33.53,35.31
"2016-07-14 00:50:00",244146,0.229,142.5,18.01,100,0,0,856.3995,0,0.177,3.078,208,20.95,20.26,0.3827437,0,51.05,58.5,33.56,35.33
"2016-07-14 01:00:00",244147,0.256,108.9,17.98,100,0,0,856.3115,0,0.374,3.077,218,20.85,20.25,0.4547449,0,51.05,58.56,33.56,35.35
"2016-07-14 01:10:00",244148,0.507,106.7,17.91,100,0,0,856.4189,0,0.248,3.078,217,20.86,20.25,0.4433763,0,51.05,58.61,33.56,35.36
"2016-07-14 01:20:00",244149,0.247,129.4,17.87,100,0,0,856.2894,0,-0.221,3.083,206,20.91,20.24,0.4282182,0,51.05,58.61,33.56,35.36
"2016-07-14 01:30:00",244150,0.289,16.4,17.9,100,0,0,856.5261,0,-0.761,3.088,202,20.88,20.24,0.4547449,0,51.1,58.61,33.57,35.36
"2016-07-14 01:40:00",244151,0.384,60.65,17.85,100,0,0,856.4983,0,-0.141,3.082,205,20.81,20.24,0.3979018,0,51.05,58.73,33.56,35.39
"2016-07-14 01:50:00",244152,0.396,54.83,17.82,100,0,0,856.2878,0,-0.094,3.082,205,20.76,20.23,0.3979018,0,51.05,58.67,33.56,35.37
"2016-07-14 02:00:00",244153,0.219,69.74,17.85,100,0,0,856.267,0,-0.165,3.082,204,20.76,20.21,0.4357972,0,50.99,58.67,33.54,35.37
"2016-07-14 02:10:00",244154,0.188,69.95,17.85,100,0,0,856.3871,0,-0.245,3.083,204,20.8,20.22,0.3941123,0,51.05,58.67,33.56,35.37
"2016-07-14 02:20:00",244155,0.121,35.17,17.86,100,0,0,856.3196,0,-0.094,3.082,199,20.82,20.21,0.3296901,0,51.05,58.67,33.56,35.37
"2016-07-14 02:30:00",244156,0.071,40.78,17.85,100,0,0,856.2744,0,0.112,3.08,210,20.76,20.21,0.3031633,0,50.99,58.73,33.54,35.39
"2016-07-14 02:40:00",244157,0.15,116.7,17.81,100,0,0,856.2618,0,-0.047,3.082,204,20.67,20.2,0.3296901,0,50.94,58.67,33.53,35.37
"2016-07-14 02:50:00",244158,0.293,81.1,17.73,100,0,0,856.2603,0,-0.103,3.083,205,20.67,20.19,0.2349515,0,50.99,58.67,33.54,35.37
"2016-07-14 03:00:00",244159,0.04,82,17.68,100,0,0,856.2609,0,0.001,3.082,205,20.7,20.19,0.3296901,0,50.94,58.67,33.53,35.37
"2016-07-14 03:10:00",244160,0.054,48.23,17.68,100,0,0,856.2088,0,0.207,3.08,206,20.68,20.2,0.3600064,0,50.99,58.67,33.54,35.37
"2016-07-14 03:20:00",244161,0.001,25.26,17.65,100,0,0,856.0009,0,0.104,3.081,205,20.67,20.2,0.2576888,0,50.94,58.67,33.53,35.37
"2016-07-14 03:30:00",244162,0.093,91.5,17.55,100,0,0,856.0203,0,-0.111,3.084,204,20.64,20.22,0.3448482,0,50.94,58.67,33.53,35.37
"2016-07-14 03:40:00",244163,0.135,95.4,17.45,100,0,0,856.1404,0,0.096,3.082,210,20.59,20.23,0.4282182,0,50.94,58.67,33.53,35.37
"2016-07-14 03:50:00",244164,0.028,54.49,17.4,100,0,0,856.2937,0,-0.063,3.084,206,20.59,20.23,0.3941123,0,50.94,58.61,33.53,35.36
"2016-07-14 04:00:00",244165,0.119,92.3,17.34,100,0,0,856.1783,0,-0.015,3.084,206,20.63,20.23,0.2880051,0,50.94,58.67,33.53,35.37
"2016-07-14 04:10:00",244166,0.12,75.02,17.33,100,0,0,856.0876,0,-3.005,3.113,198,20.66,20.23,0.4244286,0,50.94,58.61,33.53,35.36
"2016-07-14 04:20:00",244167,0,0,17.28,100,0,0,856.0131,0,-3.164,3.115,197,20.66,20.23,0.4547449,0,50.94,58.67,33.53,35.37
"2016-07-14 04:30:00",244168,0,0,17.24,100,0,0,856.0203,0,-2.958,3.113,185,20.61,20.22,0.4699031,0,50.88,58.61,33.52,35.36
"2016-07-14 04:40:00",244169,0.117,347.3,17.15,100,0,0,856.0413,0,-2.965,3.114,196,20.5,20.18,0.4509554,0,50.88,58.61,33.52,35.36
"2016-07-14 04:50:00",244170,0.129,34.41,17.04,100,0.01965142,0,856.0215,0,-3.068,3.115,184,20.51,20.17,0.4585344,0.177,50.88,58.61,33.52,35.36
"2016-07-14 05:00:00",244171,0.214,278.6,17.07,100,1.230179,0,856.025,0,-3.218,3.116,191,20.57,20.15,1.004228,1.22,50.88,58.61,33.52,35.36
"2016-07-14 05:10:00",244172,0.202,10.42,16.96,99.7,4.696689,0,856.032,0,-2.869,3.114,189,20.58,20.15,1.519606,0.333,50.88,58.61,33.52,35.36
"2016-07-14 05:20:00",244173,0.08,257.5,16.77,99.2,9.487704,0,856.0247,0,-3.185,3.118,194,20.53,20.14,1.872033,0.2,50.88,58.61,33.52,35.36
"2016-07-14 05:30:00",244174,0.091,6.221,16.54,100,7.675844,0,856.0404,0,-3.088,3.118,189,20.47,20.11,1.584028,0.207,50.88,58.61,33.52,35.36
"2016-07-14 05:40:00",244175,0.326,344.9,16.49,98.8,9.381587,0,856.2167,0,-2.889,3.117,188,20.42,20.11,1.81519,0.196,50.88,58.56,33.52,35.35
"2016-07-14 05:50:00",244176,0.129,257.4,16.17,100,17.90244,0,856.2756,0,-2.799,3.118,198,20.48,20.14,2.406358,0.134,50.83,58.56,33.5,35.35
"2016-07-14 06:00:00",244177,0.043,21.23,16.13,100,89.08381,0,856.2853,0,-2.683,3.115,193,20.49,20.14,14.58973,0.161,50.83,58.56,33.5,35.35
"2016-07-14 06:10:00",244178,0.018,8.45,16.71,97.4,79.02621,0,856.2814,0,-2.979,3.116,198,20.47,20.14,11.17914,0.139,50.83,58.56,33.5,35.35
"2016-07-14 06:20:00",244179,0.025,146.5,16.9,97,79.84764,0,856.2858,0,-3.133,3.114,194,20.42,20.1,19.56161,0.244,50.83,58.5,33.5,35.33
"2016-07-14 06:30:00",244180,0.264,174.5,17.16,97.9,94.79451,0,856.2858,0,-2.868,3.114,196,20.41,20.06,19.84204,0.202,50.77,58.56,33.49,35.35
"2016-07-14 06:40:00",244181,0.692,183.5,16.67,100,107.0177,0,856.2794,0,-2.004,3.107,208,20.39,20.08,14.49499,0.135,50.83,58.5,33.5,35.33
"2016-07-14 06:50:00",244182,0.54,187.5,16.83,100,168.4362,0,856.2858,0,0.596,3.079,218,20.32,20.1,25.6514,0.151,50.83,58.5,33.5,35.33
"2016-07-14 07:00:00",244183,0.319,193.7,17.36,100,205.9547,0,856.1951,0,-0.007,3.083,217,20.32,20.06,34.76904,0.167,50.83,58.5,33.5,35.33
"2016-07-14 07:10:00",244184,0.337,197.4,17.53,100,147.2166,0,856.277,0,-0.214,3.085,217,20.32,20.06,25.12087,0.168,50.77,58.5,33.49,35.33
"2016-07-14 07:20:00",244185,0.371,193.5,17.61,99.1,155.0182,0,856.2575,0,0.381,3.079,231,20.32,20.06,32.37405,0.208,50.77,58.5,33.49,35.33
"2016-07-14 07:30:00",244186,0.455,191.4,17.92,92.7,151.6343,0,856.2523,0,0.017,3.08,236,20.32,20.06,32.99174,0.217,50.77,58.5,33.49,35.33
"2016-07-14 07:40:00",244187,0.669,343.6,18.07,86.2,168.8332,0,856.2391,0,-0.594,3.085,236,20.31,20.08,38.49037,0.228,50.77,58.5,33.49,35.33
"2016-07-14 07:50:00",244188,0.366,255.6,18.31,90.6,289.4025,0,856.2392,0,-0.268,3.08,242,20.28,20.07,39.9266,0.147,50.77,58.44,33.49,35.32
"2016-07-14 08:00:00",244189,0.459,302.3,18.49,83.9,459.9218,0,856.0615,0,-1.014,3.087,224,20.28,20.06,55.49783,0.122,50.77,58.44,33.49,35.32
"2016-07-14 08:10:00",244190,0.612,327,18.77,81.4,627.3597,0,855.9788,0,-1.195,3.086,216,20.31,20.06,87.2991,0.138,50.77,58.44,33.49,35.32
"2016-07-14 08:20:00",244191,0.289,69.63,19.45,80.6,692.6008,0,855.751,0,-1.396,3.083,205,20.3,20.05,102.2456,0.147,50.77,58.44,33.49,35.32
"2016-07-14 08:30:00",244192,0.358,41.97,19.56,78.45,387.5293,0,855.6968,0,-1.877,3.091,214,20.26,20.03,52.65357,0.133,50.83,58.38,33.5,35.31
"2016-07-14 08:40:00",244193,0.194,14.32,19.03,81.1,320.3495,0,855.6935,0,-0.424,3.08,246,20.26,20,43.94572,0.137,50.77,58.38,33.49,35.31
"2016-07-14 08:50:00",244194,0.087,336,18.68,84.2,269.6591,0,855.701,0,-0.632,3.083,260,20.25,20.01,36.68156,0.136,50.77,58.38,33.49,35.31
"2016-07-14 09:00:00",244195,0.074,295.3,18.79,85.5,388.4404,0,855.6924,0,-0.46,3.08,228,20.24,19.99,55.67893,0.142,50.77,58.38,33.49,35.31
"2016-07-14 09:10:00",244196,0.232,332.4,18.89,84.3,381.7724,0,855.6924,0,0.322,3.072,243,20.23,19.95,55.16309,0.144,50.72,58.38,33.47,35.31
"2016-07-14 09:20:00",244197,0.258,340.7,18.84,87.5,320.977,0,855.6883,0,-0.989,3.086,221,20.22,19.9,46.04057,0.143,50.72,58.38,33.47,35.31
"2016-07-14 09:30:00",244198,0.138,26.22,19.11,86,409.0933,0,855.5893,0,-3.345,3.106,209,20.19,19.88,59.74147,0.145,50.72,58.32,33.47,35.29
"2016-07-14 09:40:00",244199,0.523,353.3,18.82,88.9,332.1593,0,855.444,0,-1.292,3.088,230,20.18,19.87,45.88308,0.136,50.72,58.32,33.47,35.29
"2016-07-14 09:50:00",244200,0.61,357.6,18.98,88,315.0443,0,855.4587,0,-0.873,3.083,267,20.28,19.9,45.15636,0.142,50.72,58.32,33.47,35.29
"2016-07-14 10:00:00",244201,0.357,327.2,19.19,85.4,391.7319,0,855.463,0,-3.755,3.109,198,20.34,19.91,58.71625,0.149,50.66,58.32,33.46,35.29
"2016-07-14 10:10:00",244202,0.399,31.5,19.54,80,364.1207,0,855.4355,0,-2.171,3.093,218,20.32,19.91,52.24208,0.143,50.72,58.32,33.47,35.29
"2016-07-14 10:20:00",244203,0.173,16.2,19.76,79.21,509.6177,0,855.4335,0,-0.033,3.071,232,20.37,19.9,75.70531,0.146,50.66,58.32,33.46,35.29
"2016-07-14 10:30:00",244204,0.25,324.6,19.88,76.66,428.4585,0,855.4398,0,0.302,3.068,264,20.39,19.89,62.51611,0.145,50.72,58.32,33.47,35.29
"2016-07-14 10:40:00",244205,0.202,307.7,20.45,74.52,816.7274,0,855.3935,0,-0.566,3.07,252,20.41,19.87,123.6936,0.149,50.66,58.32,33.46,35.29
"2016-07-14 10:50:00",244206,0.153,46.68,21.19,72.02,836.8776,0,855.3661,0,-3.539,3.095,213,20.46,19.84,123.5769,0.142,50.66,58.32,33.46,35.29
"2016-07-14 11:00:00",244207,0.348,128.6,21.02,72.27,708.8408,0,855.1872,0,-2.436,3.089,254,20.41,19.83,100.2368,0.136,50.66,58.32,33.46,35.29
"2016-07-14 11:10:00",244208,0.258,171.8,20.75,76.39,465.5245,0,855.1872,0,-1.059,3.076,209,20.41,19.84,61.17469,0.129,50.66,58.32,33.46,35.29
"2016-07-14 11:20:00",244209,0.056,26.86,20.53,78.13,308.8222,0,855.1913,0,-1.148,3.078,227,20.54,19.84,37.43636,0.121,50.61,58.32,33.45,35.29
"2016-07-14 11:30:00",244210,0.125,26.17,20.32,79.72,314.6823,0,855.185,0,-0.187,3.071,217,20.54,19.87,41.00471,0.129,50.66,58.26,33.46,35.28
"2016-07-14 11:40:00",244211,0.186,173.3,20.11,82.1,352.411,0,855.1282,0,0.182,3.069,224,20.62,19.87,49.04004,0.137,50.61,58.26,33.45,35.28
"2016-07-14 11:50:00",244212,0.104,110.4,19.63,79.58,357.0821,0,854.9661,0,0.267,3.067,218,20.67,19.8,52.24724,0.14,50.61,58.21,33.45,35.26
"2016-07-14 12:00:00",244213,0.318,123.4,20.61,79.42,904.0173,0,854.8839,0,-0.314,3.068,218,20.76,19.88,140.0541,0.151,50.61,58.26,33.45,35.28
"2016-07-14 12:10:00",244214,0.188,196.1,21.14,73.36,573.6028,0,854.8292,0,-1.941,3.083,193,20.78,19.87,80.12658,0.131,50.55,58.26,33.43,35.28
"2016-07-14 12:20:00",244215,0.11,69.69,20.75,77.59,270.4877,0,854.745,0,0.42,3.063,225,20.76,19.87,31.58957,0.116,50.55,58.26,33.43,35.28
"2016-07-14 12:30:00",244216,0.163,309.9,20.87,77.88,645.4959,0,854.6818,0,-1.498,3.079,203,20.89,19.87,96.05257,0.143,50.55,58.21,33.43,35.26
"2016-07-14 12:40:00",244217,0.241,349.9,20.64,78.78,307.7603,0,854.6818,0,-0.094,3.068,213,20.93,19.86,38.58227,0.124,50.5,58.21,33.42,35.26
"2016-07-14 12:50:00",244218,0.279,324.9,20.34,80.1,247.2456,0,854.6818,0,0.064,3.071,207,20.96,19.86,30.99372,0.098,50.5,58.21,33.42,35.26
"2016-07-14 13:00:00",244219,0.581,188.1,19.16,89.2,116.9399,0,854.6882,0,-0.262,3.078,208,21.04,19.76,12.48343,0.104,50.5,58.21,33.42,35.26
"2016-07-14 13:10:00",244220,0.102,192.5,19.08,97.3,172.2581,0,854.5912,0,-1.808,3.092,205,21.1,19.78,23.54685,0.136,50.5,58.21,33.42,35.26
"2016-07-14 13:20:00",244221,0.036,321.6,19.14,96.5,164.402,0,854.8124,0,-0.518,3.079,216,21.17,19.8,23.83139,0.145,50.44,58.21,33.41,35.26
"2016-07-14 13:30:00",244222,0.093,30.63,19.1,98.9,153.8346,0,854.7156,0,-0.371,3.078,208,21.18,19.84,22.35478,0.145,50.44,58.21,33.41,35.26
"2016-07-14 13:40:00",244223,0.188,28.34,19.02,100,189.9674,0,854.6797,0,-0.811,3.082,226,21.28,19.85,27.44383,0.144,50.5,58.21,33.42,35.26
"2016-07-14 13:50:00",244224,0.322,152.3,19.01,99.9,360.886,0,854.4521,0,1.2,3.063,236,21.3,19.89,53.72918,0.149,50.44,58.15,33.41,35.25
"2016-07-14 14:00:00",244225,0.121,161.9,19.57,96.5,502.7202,0,854.3949,0,0.713,3.062,220,21.4,19.93,78.24889,0.154,50.44,58.15,33.41,35.25
"2016-07-14 14:10:00",244226,0.225,162.5,20.63,88.2,832.928,0,854.1811,0,-2.117,3.084,203,21.39,19.9,134.8815,0.161,50.44,58.15,33.41,35.25
"2016-07-14 14:20:00",244227,0.391,276.1,21.15,80.9,470.1334,0,854.1734,0,-0.756,3.073,248,21.44,19.98,69.10107,0.129,50.44,58.15,33.41,35.25
"2016-07-14 14:30:00",244228,0.125,203.8,20.27,88.9,224.8031,0,854.1809,0,-1.13,3.079,218,21.45,19.91,30.05368,0.099,50.39,58.15,33.39,35.25
"2016-07-14 14:40:00",244229,0.265,32.05,19.87,87.9,109.718,0,854.2291,0,-3.334,3.104,194,21.44,19.85,11.99893,0.107,50.39,58.15,33.39,35.25
"2016-07-14 14:50:00",244230,0.116,126.4,19.46,96.5,66.02639,0,854.3575,0,-1.069,3.083,204,21.48,19.87,6.868957,0.088,50.39,58.09,33.39,35.24
"2016-07-14 15:00:00",244231,0.262,264.1,18.7,99.7,70.67612,0,854.4608,0,-0.119,3.08,354,21.54,19.91,9.593229,0.114,50.39,58.09,33.39,35.24
"2016-07-14 15:10:00",244232,0.334,11.69,18.08,99,181.6445,0,854.6686,0,-2.372,3.102,252,21.57,19.92,27.13958,0.148,50.39,58.09,33.39,35.24
"2016-07-14 15:20:00",244233,0.296,191.4,18.64,93.7,402.3315,0,854.6879,0,-2.021,3.096,209,21.56,19.95,58.72553,0.148,50.39,58.09,33.39,35.24
"2016-07-14 15:30:00",244234,0.798,198.6,18.59,84.3,294.1504,0,854.6195,0,0.281,3.076,201,21.67,20.02,45.1697,0.154,50.33,58.09,33.38,35.24
"2016-07-14 15:40:00",244235,1.137,179,17.95,84.7,211.081,0,854.293,0,-0.616,3.086,200,21.67,20.04,35.03887,0.172,50.33,58.09,33.38,35.24
"2016-07-14 15:50:00",244236,1.401,183.7,18.08,82.8,138.265,0,854.1876,0,-0.28,3.082,209,21.63,20.05,27.49566,0.199,50.33,58.09,33.38,35.24
"2016-07-14 16:00:00",244237,0.804,228.4,18.38,78.27,127.9953,0,854.1617,0,-0.552,3.083,203,21.76,20.05,24.1579,0.189,50.33,58.03,33.38,35.22
"2016-07-14 16:10:00",244238,0.746,50.95,18.71,76.14,118.1279,0,854.095,0,-1.332,3.088,202,21.76,20.02,21.27816,0.181,50.28,58.03,33.37,35.22
"2016-07-14 16:20:00",244239,0.646,228.8,18.98,74.5,110.3819,0,854.0734,0,-0.298,3.078,203,21.73,20.07,19.40621,0.176,50.28,58.03,33.37,35.22
"2016-07-14 16:30:00",244240,0.575,179.8,18.85,77.11,113.9114,0,854.2081,0,-0.02,3.076,224,21.84,20.12,18.07232,0.16,50.28,58.03,33.37,35.22
"2016-07-14 16:40:00",244241,0.619,118.6,18.78,77.76,103.4608,0,854.2159,0,0.021,3.074,194,21.84,20.15,16.59061,0.161,50.28,58.03,33.37,35.22
"2016-07-14 16:50:00",244242,0.372,38.12,19.27,71.47,83.01545,0,854.2155,0,-0.854,3.082,250,21.81,20.15,13.08529,0.157,50.22,58.03,33.35,35.22
"2016-07-14 17:00:00",244243,0.327,308.2,19.16,71.86,73.60635,0,854.2023,0,-1.554,3.089,236,21.86,20.15,10.60314,0.144,50.22,57.97,33.35,35.21
"2016-07-14 17:10:00",244244,0.582,35.48,19,74.74,72.07353,0,854.2169,0,-0.951,3.085,280,21.91,20.15,10.33787,0.143,50.22,58.03,33.35,35.22
"2016-07-14 17:20:00",244245,0.427,277.1,18.78,78.32,86.65489,0,854.4276,0,-4.704,3.122,201,21.96,20.15,13.58929,0.156,50.22,57.97,33.35,35.21
"2016-07-14 17:30:00",244246,0.171,11.1,18.85,78.18,77.39514,0,854.478,0,-1.229,3.087,232,21.98,20.15,12.72528,0.164,50.22,58.03,33.35,35.22
"2016-07-14 17:40:00",244247,0.093,242.1,18.87,80.4,88.21521,0,854.4662,0,-1.03,3.086,225,21.98,20.15,14.10088,0.16,50.17,57.97,33.34,35.21
"2016-07-14 17:50:00",244248,0.101,147.1,18.54,88.6,48.68835,0,854.2845,0,-1.365,3.092,256,21.98,20.16,6.385376,0.129,50.22,57.97,33.35,35.21
"2016-07-14 18:00:00",244249,0.125,128.3,18.13,95.3,45.75243,0,854.1489,0,-0.855,3.088,241,21.98,20.19,6.097372,0.133,50.17,57.97,33.34,35.21
"2016-07-14 18:10:00",244250,0.221,126.8,18.11,98.8,76.48725,0,854.007,0,-0.65,3.086,224,21.98,20.22,11.69073,0.153,50.22,57.97,33.35,35.21
"2016-07-14 18:20:00",244251,0.161,146.7,18.12,96.1,58.87565,0,854.178,0,-1.102,3.089,210,21.98,20.25,9.352587,0.159,50.17,57.97,33.34,35.21
"2016-07-14 18:30:00",244252,0,0,18.28,94.1,29.73652,0,854.226,0,-1.675,3.095,199,21.99,20.29,4.907455,0.165,50.17,57.97,33.34,35.21
"2016-07-14 18:40:00",244253,0.068,17.22,18.13,94.7,6.708994,0,854.4025,0,-2.151,3.101,201,21.99,20.31,1.042124,0.152,50.17,57.91,33.34,35.2
"2016-07-14 18:50:00",244254,0,0,18.06,98.6,2.515381,0,854.4481,0,-3.072,3.109,205,21.93,20.32,0.4320077,0.188,50.17,57.91,33.34,35.2
"2016-07-14 19:00:00",244255,0.137,80.4,17.9,100,0.7781961,0,854.4813,0,-3.707,3.117,206,21.89,20.3,0.3486378,0.198,50.17,57.91,33.34,35.2
"2016-07-14 19:10:00",244256,0.024,271.4,17.69,100,0,0,854.4966,0,-2.531,3.107,238,21.89,20.28,0.420639,0,50.11,57.91,33.33,35.2
"2016-07-14 19:20:00",244257,0.094,75.37,17.52,100,0,0,854.4941,0,-3.823,3.12,207,21.94,20.28,0.4812717,0,50.11,57.91,33.33,35.2
"2016-07-14 19:30:00",244258,0.114,147,17.25,100,0,0,854.4993,0,-3.339,3.116,208,21.92,20.25,0.3183214,0,50.17,57.86,33.34,35.18
"2016-07-14 19:40:00",244259,0.009,336,17.41,100,0,0,854.672,0,-1.967,3.102,222,21.82,20.24,0.7692768,0,50.17,57.86,33.34,35.18
"2016-07-14 19:50:00",244260,0.126,359.7,17.48,100,0,0,854.7596,0,-0.166,3.085,212,21.8,20.27,0.7275919,0,50.11,57.86,33.33,35.18
"2016-07-14 20:00:00",244261,0.311,195,17.29,100,0,0,854.7455,0,0.881,3.076,273,21.83,20.32,0.3827437,0,50.11,57.86,33.33,35.18
"2016-07-14 20:10:00",244262,0.001,311.2,17.12,100,0,0,854.9626,0,-0.103,3.086,215,21.81,20.32,0.5002194,0,50.11,57.86,33.33,35.18
"2016-07-14 20:20:00",244263,0,0,16.96,100,0,0,854.8168,0,0.635,3.08,274,21.73,20.32,0.5419043,0,50.11,57.86,33.33,35.18
"2016-07-14 20:30:00",244264,0,0,16.83,100,0,0,855.0162,0,1.403,3.073,350,21.72,20.32,0.7692768,0,50.11,57.8,33.33,35.17
"2016-07-14 20:40:00",244265,0,0,16.75,100,0,0,855.0161,0,1.704,3.071,378,21.75,20.32,0.7995932,0,50.11,57.8,33.33,35.17
"2016-07-14 20:50:00",244266,0,0,16.5,100,0,0,855.0063,0,-0.727,3.096,273,21.69,20.36,0.5835893,0,50.11,57.8,33.33,35.17
"2016-07-14 21:00:00",244267,0.016,9,16.41,100,0,0,855.0197,0,-0.775,3.096,271,21.65,20.37,0.7275919,0,50.11,57.8,33.33,35.17
"2016-07-14 21:10:00",244268,0.086,258.8,16.39,100,0,0,854.904,0,-0.315,3.092,273,21.7,20.39,0.9094898,0,50.11,57.8,33.33,35.17
"2016-07-14 21:20:00",244269,0.043,131.3,16.33,100,0,0,854.8029,0,-1.115,3.1,256,21.7,20.4,0.82612,0,50.11,57.8,33.33,35.17
"2016-07-14 21:30:00",244270,0,0,16.32,100,0,0,855.0219,0,-3.428,3.122,198,21.58,20.39,1.091388,0,50.11,57.74,33.33,35.16
"2016-07-14 21:40:00",244271,0.033,138.1,16.26,100,0,0,855.0219,0,-3.283,3.122,204,21.61,20.37,0.7806454,0,50.11,57.74,33.33,35.16
"2016-07-14 21:50:00",244272,0.099,102.3,15.96,100,0,0,855.0219,0,-2.031,3.111,217,21.56,20.37,0.5456939,0,50.06,57.8,33.31,35.17
"2016-07-14 22:00:00",244273,0,0,16.09,100,0,0,855.0219,0,2.124,3.069,365,21.47,20.37,0.8185408,0,50.06,57.74,33.31,35.16
"2016-07-14 22:10:00",244274,0.002,136.2,16.21,100,0,0,855.0219,0,1.174,3.078,341,21.5,20.37,0.7958036,0,50.06,57.74,33.31,35.16
"2016-07-14 22:20:00",244275,0.122,127,16.16,100,0,0,854.9714,0,-2.642,3.116,213,21.5,20.4,0.8981212,0,50.11,57.74,33.33,35.16
"2016-07-14 22:30:00",244276,0.403,172.3,15.9,100,0,0,854.7881,0,-3.629,3.127,198,21.38,20.41,0.4812717,0,50.06,57.74,33.31,35.16
"2016-07-14 22:40:00",244277,0.469,124.2,15.77,100,0,0,854.746,0,-3.066,3.122,203,21.42,20.41,0.462324,0,50.06,57.74,33.31,35.16
"2016-07-14 22:50:00",244278,0.234,146.8,15.88,100,0,0,854.765,0,-3.163,3.122,201,21.36,20.41,0.8602258,0,50.06,57.68,33.31,35.14
"2016-07-14 23:00:00",244279,0.077,123.4,16,100,0,0,854.7523,0,-1.818,3.108,206,21.29,20.41,0.9511748,0,50.11,57.68,33.33,35.14
"2016-07-14 23:10:00",244280,0.472,152,16.02,100,0,0,854.767,0,-0.432,3.095,222,21.34,20.41,0.9852807,0,50.06,57.74,33.31,35.16
"2016-07-14 23:20:00",244281,0.991,146.6,15.84,100,0,0,854.5417,0,-0.289,3.095,233,21.29,20.41,0.5797998,0,50.06,57.74,33.31,35.16
"2016-07-14 23:30:00",244282,0.857,151.2,15.84,100,0,0,854.5165,0,0.383,3.088,221,21.23,20.41,0.6593801,0,50.06,57.68,33.31,35.14
"2016-07-14 23:40:00",244283,0.827,150.4,15.84,100,0,0,854.5165,0,-0.234,3.094,217,21.27,20.41,0.693486,0,50.06,57.68,33.31,35.14
"2016-07-14 23:50:00",244284,0.347,150,15.74,100,0,0.5,854.3627,0,-1.27,3.105,199,21.22,20.41,0.7010651,0,50.06,57.68,33.31,35.14
